Showing default

STARLETTE, 7646

Orbit data source: Space-Track

STARLETTE, 7646 is a payload satellite owned by CNES (FR) in LEO that was launched on Thu, 06 Feb 1975 UTC via a DIAMANT BP.4 launch vehicle from the French Guiana (FRGUI). Payload-class satellites include a variety of spacecraft equipped with specific instruments for various scientific and technological missions. These include communications satellites like Starlink; space stations such as the ISS; scientific satellites like the Hubble; Earth observation satellites from companies like Planet Labs, Umbra, and HawkEye 360; GPS; miniature CubeSats for education and research; and military/defense satellites.

Loading next visibility...
Identifier
7646, 1975-010A
Orbit
LEO
Country
Flag of FRFR
Related business
Manufacturer
CNES
Mission
Operational spacecraft
Bus & Motor
STARLETTE, Unknown motor
Mass
48 kg wet, 48 kg dry
Launch date (UTC)
1975-02-06 (51 years ago)
Launch vehicle
DIAMANT BP.4
Launch site
French Guiana (FRGUI)
Object type
Payload
Rocket body
Debris
Shape & HBR
Unknown
Radar Cross Section
Medium (>0.1 m² and <1 m²)

Expand to show TLE details & history
Last TLE update: 5 hours ago

TLE from 5 hours ago
0 STARLETTE
1  7646U 75010A   25343.17843301 -.00000146  00000-0 -22537-5 0  9997
2  7646  49.8219 134.5902 0205631 155.3169 205.7732 13.82347403568256
Epoch: 2025-12-09T04:16Z
TLE epoch observation values (Epoch: 2025-12-09T04:16:56.612Z)
Latitude
-0.00001°
Longitude
-7.81254°
Altitude
1,092.441 km
Speed
7.239 km/s
True Right ascension
08h 58m 21s
True Declination
0° 00' 00"
Sunlit
Object was in daylight at epoch
Visualization orbit readout
Latitude
Unknown
Longitude
Unknown
Altitude
Unknown
Speed
Unknown
Apparent Right ascension
Unknown
Apparent Declination
Unknown
Sunlit
N/A
Visualization observer readout
Local Sidereal Time
07:22:56
Azimuth
Unknown
Elevation
Unknown
Doppler factor
Unknown
Orbital elements
Apogee altitude
1,107.144 km
Perigee altitude
805.505 km
Semi-major axis
7,334.461 km
Eccentricity
0.02056
Inclination
49.8219°
RAAN
134.5902°
Arg. of periapsis
155.3169°
True anomaly
204.77188°
Mean anomaly
205.7732°
Eccentric anomaly
205.27025°
Mean motion
3.45534 °/min
Orbital period
104.19 mins
BSTAR
-0.0000022537
Loading maneuver chart data...
Computing Atmospheric mass density...
Loading historical data...
Loading historical data...
Loading historical data...
Loading historical data...
Loading historical data...
Loading historical data...
Loading historical data...
Other satellites on launch #10 in the year 1975 (1975-02-06 UTC)

Documentation

Showing up to 5 results
|